This is the latest recevied weather packets stored in our database for station/object WS2Z. If no packets are shown the sender has not sent any weather packets the latest 10 day(s).
| Time | Temp. | Humidity | Pressure | Rain* | Wind** | Luminosity | Snow |
|---|---|---|---|---|---|---|---|
| 1777496748 | 29.44° C | 57% | 1013.3 hPa | 0 mm | - | 415 W/m² | - |
| 1777496445 | 29.44° C | 57% | 1013.3 hPa | 0 mm | - | 427 W/m² | - |
| 1777496142 | 29.44° C | 54% | 1013.2 hPa | 0 mm | - | 446 W/m² | - |
| 1777495837 | 29.44° C | 57% | 1013.2 hPa | 0 mm | - | 463 W/m² | - |
| 1777495534 | 29.44° C | 53% | 1013.5 hPa | 0 mm | - | 479 W/m² | - |
| 1777495229 | 29.44° C | 53% | 1013.4 hPa | 0 mm | - | 497 W/m² | - |
| 1777494927 | 28.89° C | 58% | 1013.5 hPa | 0 mm | - | 514 W/m² | - |
| 1777494624 | 29.44° C | 56% | 1013.6 hPa | 0 mm | - | 532 W/m² | - |
| 1777494322 | 29.44° C | 56% | 1013.7 hPa | 0 mm | - | 550 W/m² | - |
| 1777494018 | 29.44° C | 56% | 1013.5 hPa | 0 mm | - | 564 W/m² | - |
| 1777493716 | 30° C | 56% | 1013.7 hPa | 0 mm | - | 579 W/m² | - |
| 1777493414 | 30.56° C | 56% | 1013.7 hPa | 0 mm | - | 595 W/m² | - |
| 1777493109 | 30° C | 56% | 1013.6 hPa | 0 mm | - | 610 W/m² | - |
| 1777492806 | 30° C | 56% | 1013.9 hPa | 0 mm | - | 627 W/m² | - |
| 1777492503 | 30° C | 54% | 1013.8 hPa | 0 mm | - | 638 W/m² | - |
| 1777492198 | 30° C | 55% | 1013.9 hPa | 0 mm | - | 649 W/m² | - |
| 1777491896 | 30° C | 58% | 1013.8 hPa | 0 mm | - | 662 W/m² | - |
| 1777491592 | 30° C | 57% | 1013.9 hPa | 0 mm | - | 672 W/m² | - |
| 1777491290 | 30° C | 58% | 1014.1 hPa | 0 mm | - | 691 W/m² | - |
| 1777490986 | 30° C | 56% | 1014.2 hPa | 0 mm | - | 718 W/m² | - |
| 1777490682 | 30° C | 56% | 1014.2 hPa | 0 mm | - | 719 W/m² | - |
| 1777490378 | 30.56° C | 55% | 1014.4 hPa | 0 mm | - | 729 W/m² | - |
| 1777490076 | 30° C | 55% | 1014.5 hPa | 0 mm | - | 739 W/m² | - |
| 1777489773 | 30° C | 56% | 1014.7 hPa | 0 mm | - | 747 W/m² | - |
| 1777489470 | 30.56° C | 56% | 1014.8 hPa | 0 mm | - | 779 W/m² | - |
* Rain latest hour (hover to see other rain measurements)
** Current wind speed in m/s (hover to see current wind gust speed)